C/2018 A6 ( Gibbs )

Japanese version
Home page
Updated on April 13, 2018

---------------------------------------------------------------------

* Profile

Discovery Date January 15, 2018
Magnitude 19.3 mag
Discoverer A. R. Gibbs (Mount Lemmon)

* Pictures

* Orbital Elements

Epoch 2019 July 16.0 TT = JDT 2458680.5
T 2019 July 14.22896 TT                                 MPCW
q   3.0178867            (2000.0)            P               Q
n   0.01635240     Peri.  264.52085     -0.16533127     +0.93043982
a  15.3726379      Node   340.38593     +0.22106436     -0.28819177
e   0.8036845      Incl.   76.96110     -0.96114313     -0.22633437
P  60.27
From 127 observations 2018 Jan. 15-Mar. 24, mean residual 0".5.

* Finding Charts

* Magnitudes Graph

        m1 = 8.5 + 5 log d + 10.0 log r

---------------------------------------------------------------------

The orbital elements are published on M.P.E.C. 2018-F152.
The charts are made with StellaNavigator Ver.10 (AstroArts).
The magnitudes graphs are made with Comet for Windows.

---------------------------------------------------------------------

Copyright(C) Seiichi Yoshida (comet@aerith.net). All rights reserved.